Time,TemperatureF,DewpointF,PressureIn,WindDirection,WindDirectionDegrees,WindSpeedMPH,WindSpeedGustMPH,Humidity,HourlyPrecipIn,Conditions,Clouds,dailyrainin,SoftwareType,DateUTC
2013-06-09 00:00:00,79.2,30.8,29.94,NE,41,0.0,0.0,17,0.00,,---,0.00,VWS V12.07,2013-06-09 07:00:00,
2013-06-09 00:02:00,79.1,31.2,29.94,NE,41,0.0,32.1,17,0.00,,---,0.00,VWS V12.07,2013-06-09 07:02:00,
2013-06-09 00:07:00,78.7,30.7,29.94,NE,41,0.0,32.1,17,0.00,,---,0.00,VWS V12.07,2013-06-09 07:07:00,
2013-06-09 00:12:00,78.3,31.4,29.94,NE,41,0.0,32.1,18,0.00,,---,0.00,VWS V12.07,2013-06-09 07:12:00,
2013-06-09 00:17:00,78.1,30.9,29.94,NE,41,0.0,32.1,18,0.00,,---,0.00,VWS V12.07,2013-06-09 07:17:00,
2013-06-09 00:22:00,77.9,31.0,29.94,NE,41,0.0,32.1,18,0.00,,---,0.00,VWS V12.07,2013-06-09 07:22:00,
2013-06-09 00:27:00,77.5,31.0,29.94,NE,41,0.0,32.1,18,0.00,,---,0.00,VWS V12.07,2013-06-09 07:27:00,
2013-06-09 00:30:00,77.5,31.0,29.94,NE,41,0.0,0.0,18,0.00,,---,0.00,VWS V12.07,2013-06-09 07:30:00,
2013-06-09 00:32:00,77.1,31.6,29.94,NE,41,0.0,32.1,19,0.00,,---,0.00,VWS V12.07,2013-06-09 07:32:00,
2013-06-09 00:37:00,76.8,31.9,29.94,NE,41,0.0,32.1,19,0.00,,---,0.00,VWS V12.07,2013-06-09 07:37:00,
2013-06-09 00:42:00,76.5,32.4,29.94,NE,41,0.0,32.1,20,0.00,,---,0.00,VWS V12.07,2013-06-09 07:42:00,
2013-06-09 00:47:00,76.1,31.9,29.94,NE,41,0.0,32.1,20,0.00,,---,0.00,VWS V12.07,2013-06-09 07:47:00,
2013-06-09 00:52:00,76.0,32.3,29.94,NE,41,0.0,32.1,20,0.00,,---,0.00,VWS V12.07,2013-06-09 07:52:00,
2013-06-09 00:57:00,75.9,32.6,29.94,NE,41,0.0,32.1,20,0.00,,---,0.00,VWS V12.07,2013-06-09 07:57:00,
2013-06-09 01:00:00,75.9,32.7,29.94,NE,41,0.0,0.0,21,0.00,,---,0.00,VWS V12.07,2013-06-09 08:00:00,
2013-06-09 01:02:00,75.7,32.8,29.94,NE,41,0.0,32.1,21,0.00,,---,0.00,VWS V12.07,2013-06-09 08:02:00,
2013-06-09 01:30:00,75.2,32.0,29.94,NE,41,0.0,0.0,20,0.00,,---,0.00,VWS V12.07,2013-06-09 08:30:00,
2013-06-09 02:00:00,73.7,32.6,29.94,NE,41,0.0,0.0,22,0.00,,---,0.00,VWS V12.07,2013-06-09 09:00:00,
2013-06-09 02:02:00,73.7,32.5,29.94,NE,41,0.0,32.1,22,0.00,,---,0.00,VWS V12.07,2013-06-09 09:02:00,
2013-06-09 02:07:00,73.8,32.6,29.94,NE,41,0.0,32.1,22,0.00,,---,0.00,VWS V12.07,2013-06-09 09:07:00,
2013-06-09 02:12:00,73.8,32.6,29.94,NE,41,0.0,32.1,22,0.00,,---,0.00,VWS V12.07,2013-06-09 09:12:00,
2013-06-09 02:17:00,73.8,32.7,29.94,NE,41,0.0,32.1,22,0.00,,---,0.00,VWS V12.07,2013-06-09 09:17:00,
2013-06-09 02:22:00,73.6,32.5,29.94,NE,41,0.0,32.1,22,0.00,,---,0.00,VWS V12.07,2013-06-09 09:22:00,
2013-06-09 02:27:00,73.5,32.8,29.94,NE,41,0.0,32.1,22,0.00,,---,0.00,VWS V12.07,2013-06-09 09:27:00,
2013-06-09 02:30:00,73.5,32.8,29.94,NE,41,0.0,0.0,22,0.00,,---,0.00,VWS V12.07,2013-06-09 09:30:00,
2013-06-09 02:32:00,72.9,32.9,29.94,NE,41,0.0,32.1,23,0.00,,---,0.00,VWS V12.07,2013-06-09 09:32:00,
2013-06-09 02:37:00,72.8,33.2,29.94,NE,41,0.0,32.1,23,0.00,,---,0.00,VWS V12.07,2013-06-09 09:37:00,
2013-06-09 02:42:00,72.0,32.6,29.95,NE,41,0.0,32.1,23,0.00,,---,0.00,VWS V12.07,2013-06-09 09:42:00,
2013-06-09 02:47:00,71.8,32.8,29.94,NE,41,0.0,32.1,24,0.00,,---,0.00,VWS V12.07,2013-06-09 09:47:00,
2013-06-09 02:52:00,71.5,32.5,29.95,NE,41,0.0,32.1,24,0.00,,---,0.00,VWS V12.07,2013-06-09 09:52:00,
2013-06-09 02:57:00,71.2,32.5,29.95,NE,41,0.0,32.1,24,0.00,,---,0.00,VWS V12.07,2013-06-09 09:57:00,
2013-06-09 03:00:00,71.2,32.5,29.94,NE,41,0.0,0.0,24,0.00,,---,0.00,VWS V12.07,2013-06-09 10:00:00,
2013-06-09 03:02:00,71.0,33.0,29.95,NE,41,0.0,32.1,25,0.00,,---,0.00,VWS V12.07,2013-06-09 10:02:00,
2013-06-09 03:07:00,70.8,33.4,29.95,NE,41,0.0,32.1,25,0.00,,---,0.00,VWS V12.07,2013-06-09 10:07:00,
2013-06-09 03:12:00,70.4,32.8,29.95,NE,41,0.0,32.1,25,0.00,,---,0.00,VWS V12.07,2013-06-09 10:12:00,
2013-06-09 03:17:00,70.5,32.4,29.95,NE,41,0.0,32.1,24,0.00,,---,0.00,VWS V12.07,2013-06-09 10:17:00,
2013-06-09 03:22:00,70.3,32.8,29.95,NE,41,0.0,32.1,25,0.00,,---,0.00,VWS V12.07,2013-06-09 10:22:00,
2013-06-09 03:27:00,70.2,32.9,29.95,NE,41,0.0,32.1,25,0.00,,---,0.00,VWS V12.07,2013-06-09 10:27:00,
2013-06-09 03:30:00,70.2,32.9,29.94,NE,41,0.0,0.0,25,0.00,,---,0.00,VWS V12.07,2013-06-09 10:30:00,
2013-06-09 03:32:00,70.0,33.3,29.95,NE,41,0.0,32.1,26,0.00,,---,0.00,VWS V12.07,2013-06-09 10:32:00,
2013-06-09 03:37:00,69.8,33.0,29.95,NE,41,0.0,32.1,26,0.00,,---,0.00,VWS V12.07,2013-06-09 10:37:00,
2013-06-09 03:42:00,69.7,33.3,29.95,NE,41,0.0,32.1,26,0.00,,---,0.00,VWS V12.07,2013-06-09 10:42:00,
2013-06-09 03:47:00,69.5,33.1,29.95,NE,41,0.0,32.1,26,0.00,,---,0.00,VWS V12.07,2013-06-09 10:47:00,
2013-06-09 03:52:00,69.3,32.7,29.95,NE,41,0.0,32.1,26,0.00,,---,0.00,VWS V12.07,2013-06-09 10:52:00,
2013-06-09 03:57:00,69.2,32.7,29.95,NE,41,0.0,32.1,26,0.00,,---,0.00,VWS V12.07,2013-06-09 10:57:00,
2013-06-09 04:00:00,69.2,32.7,29.95,NE,41,0.0,0.0,26,0.00,,---,0.00,VWS V12.07,2013-06-09 11:00:00,
2013-06-09 04:02:00,68.9,32.6,29.95,NE,41,0.0,32.1,26,0.00,,---,0.00,VWS V12.07,2013-06-09 11:02:00,
2013-06-09 04:07:00,68.9,32.5,29.95,NE,41,0.0,32.1,26,0.00,,---,0.00,VWS V12.07,2013-06-09 11:07:00,
2013-06-09 04:13:00,68.8,33.6,29.96,NE,41,0.0,32.1,27,0.00,,---,0.00,VWS V12.07,2013-06-09 11:13:00,
2013-06-09 04:18:00,68.4,33.8,29.95,NE,41,0.0,32.1,28,0.00,,---,0.00,VWS V12.07,2013-06-09 11:18:00,
2013-06-09 04:23:00,68.2,33.9,29.96,NE,41,0.0,32.1,28,0.00,,---,0.00,VWS V12.07,2013-06-09 11:23:00,
2013-06-09 04:28:00,68.0,33.9,29.96,NE,41,0.0,32.1,28,0.00,,---,0.00,VWS V12.07,2013-06-09 11:28:00,
2013-06-09 04:30:00,68.0,33.9,29.96,NE,41,0.0,0.0,28,0.00,,---,0.00,VWS V12.07,2013-06-09 11:30:00,
2013-06-09 04:33:00,67.8,33.7,29.96,NE,41,0.0,32.1,28,0.00,,---,0.00,VWS V12.07,2013-06-09 11:33:00,
2013-06-09 04:38:00,67.9,33.8,29.96,NE,41,0.0,32.1,28,0.00,,---,0.00,VWS V12.07,2013-06-09 11:38:00,
2013-06-09 04:43:00,67.8,33.5,29.96,NE,41,0.0,32.1,28,0.00,,---,0.00,VWS V12.07,2013-06-09 11:43:00,
2013-06-09 04:48:00,67.4,33.7,29.96,NE,41,0.0,32.1,29,0.00,,---,0.00,VWS V12.07,2013-06-09 11:48:00,
2013-06-09 04:53:00,67.3,34.2,29.96,NE,41,0.0,32.1,29,0.00,,---,0.00,VWS V12.07,2013-06-09 11:53:00,
2013-06-09 04:58:00,66.9,34.4,29.96,NE,41,0.0,32.1,30,0.00,,---,0.00,VWS V12.07,2013-06-09 11:58:00,
2013-06-09 05:00:00,67.0,34.5,29.96,NE,41,0.0,0.0,30,0.00,,---,0.00,VWS V12.07,2013-06-09 12:00:00,
2013-06-09 05:03:00,66.7,34.5,29.96,NE,41,0.0,32.1,30,0.00,,---,0.00,VWS V12.07,2013-06-09 12:03:00,
2013-06-09 05:08:00,66.4,34.5,29.96,NE,41,0.0,32.1,30,0.00,,---,0.00,VWS V12.07,2013-06-09 12:08:00,
2013-06-09 05:13:00,66.3,34.2,29.96,NE,41,0.0,32.1,30,0.00,,---,0.00,VWS V12.07,2013-06-09 12:13:00,
2013-06-09 05:18:00,66.1,34.2,29.96,NE,41,0.0,32.1,30,0.00,,---,0.00,VWS V12.07,2013-06-09 12:18:00,
2013-06-09 05:23:00,66.0,34.3,29.96,NE,41,0.0,32.1,31,0.00,,---,0.00,VWS V12.07,2013-06-09 12:23:00,
2013-06-09 05:28:00,66.0,34.5,29.96,NE,41,0.0,32.1,31,0.00,,---,0.00,VWS V12.07,2013-06-09 12:28:00,
2013-06-09 05:30:00,66.0,34.4,29.96,NE,41,0.0,0.0,31,0.00,,---,0.00,VWS V12.07,2013-06-09 12:30:00,
2013-06-09 05:37:00,65.7,35.1,29.96,NE,41,0.0,32.1,32,0.00,,---,0.00,VWS V12.07,2013-06-09 12:37:00,
2013-06-09 05:42:00,65.7,35.0,29.97,NE,41,0.0,32.1,32,0.00,,---,0.00,VWS V12.07,2013-06-09 12:42:00,
2013-06-09 05:48:00,66.0,34.9,29.97,NE,41,0.0,32.1,32,0.00,,---,0.00,VWS V12.07,2013-06-09 12:48:00,
2013-06-09 05:53:00,66.1,34.1,29.97,NE,41,0.0,32.1,30,0.00,,---,0.00,VWS V12.07,2013-06-09 12:53:00,
2013-06-09 05:59:00,66.7,35.5,29.97,NE,41,0.0,32.1,32,0.00,,---,0.00,VWS V12.07,2013-06-09 12:59:00,
2013-06-09 06:00:00,66.3,35.2,29.97,NE,41,0.0,0.0,32,0.00,,---,0.00,VWS V12.07,2013-06-09 13:00:00,
2013-06-09 06:04:00,67.0,35.4,29.97,NE,41,0.0,32.1,31,0.00,,---,0.00,VWS V12.07,2013-06-09 13:04:00,
2013-06-09 06:09:00,67.1,36.0,29.97,NE,41,0.0,32.1,32,0.00,,---,0.00,VWS V12.07,2013-06-09 13:09:00,
2013-06-09 06:14:00,67.7,37.0,29.97,NE,41,0.0,32.1,32,0.00,,---,0.00,VWS V12.07,2013-06-09 13:14:00,
2013-06-09 06:19:00,67.9,36.5,29.97,NE,41,0.0,32.1,31,0.00,,---,0.00,VWS V12.07,2013-06-09 13:19:00,
2013-06-09 06:24:00,68.4,37.1,29.97,NE,41,0.0,32.1,32,0.00,,---,0.00,VWS V12.07,2013-06-09 13:24:00,
2013-06-09 06:29:00,68.8,37.1,29.98,NE,41,0.0,32.1,31,0.00,,---,0.00,VWS V12.07,2013-06-09 13:29:00,
2013-06-09 06:30:00,68.8,37.3,29.98,NE,41,0.0,0.0,31,0.00,,---,0.00,VWS V12.07,2013-06-09 13:30:00,
2013-06-09 06:35:00,69.7,37.3,29.98,NE,41,0.0,32.1,30,0.00,,---,0.00,VWS V12.07,2013-06-09 13:35:00,
2013-06-09 06:40:00,70.7,36.2,29.98,NE,41,0.0,32.1,28,0.00,,---,0.00,VWS V12.07,2013-06-09 13:40:00,
2013-06-09 06:45:00,71.9,35.6,29.98,NE,41,0.0,32.1,26,0.00,,---,0.00,VWS V12.07,2013-06-09 13:45:00,
2013-06-09 06:50:00,73.0,35.7,29.98,NE,41,0.0,32.1,26,0.00,,---,0.00,VWS V12.07,2013-06-09 13:50:00,
2013-06-09 06:55:00,73.6,36.0,29.98,NE,41,0.0,32.1,25,0.00,,---,0.00,VWS V12.07,2013-06-09 13:55:00,
2013-06-09 07:00:00,74.4,36.5,29.98,NE,41,0.0,32.1,25,0.00,,---,0.00,VWS V12.07,2013-06-09 14:00:00,
2013-06-09 07:05:00,75.0,37.1,29.98,NE,41,0.0,32.1,25,0.00,,---,0.00,VWS V12.07,2013-06-09 14:05:00,
2013-06-09 07:10:00,75.7,36.8,29.98,NE,41,0.0,32.1,24,0.00,,---,0.00,VWS V12.07,2013-06-09 14:10:00,
2013-06-09 07:15:00,76.3,37.1,29.98,NE,41,0.0,32.1,24,0.00,,---,0.00,VWS V12.07,2013-06-09 14:15:00,
2013-06-09 07:20:00,76.9,37.3,29.98,NE,41,0.0,32.1,24,0.00,,---,0.00,VWS V12.07,2013-06-09 14:20:00,
2013-06-09 07:26:00,77.2,37.0,29.99,NE,41,0.0,32.1,23,0.00,,---,0.00,VWS V12.07,2013-06-09 14:26:00,
2013-06-09 07:30:00,77.3,36.9,29.99,NE,41,0.0,0.0,23,0.00,,---,0.00,VWS V12.07,2013-06-09 14:30:00,
2013-06-09 07:31:00,77.9,37.4,29.99,NE,41,0.0,32.1,23,0.00,,---,0.00,VWS V12.07,2013-06-09 14:31:00,
2013-06-09 07:36:00,78.2,36.7,29.99,NE,41,0.0,32.1,22,0.00,,---,0.00,VWS V12.07,2013-06-09 14:36:00,
2013-06-09 07:45:00,78.8,36.7,29.99,NE,41,0.0,32.1,22,0.00,,---,0.00,VWS V12.07,2013-06-09 14:45:00,
2013-06-09 07:50:00,79.1,36.9,29.99,NE,41,0.0,32.1,22,0.00,,---,0.00,VWS V12.07,2013-06-09 14:50:00,
2013-06-09 07:55:00,79.8,36.8,29.99,NE,41,0.0,32.1,21,0.00,,---,0.00,VWS V12.07,2013-06-09 14:55:00,
2013-06-09 08:00:00,80.2,36.0,29.99,North,1,0.0,32.1,20,0.00,,---,0.00,VWS V12.07,2013-06-09 15:00:00,
2013-06-09 08:05:00,80.2,35.7,29.99,NE,55,0.0,32.1,20,0.00,,---,0.00,VWS V12.07,2013-06-09 15:05:00,
2013-06-09 08:10:00,80.7,36.4,29.99,NE,55,0.0,32.1,20,0.00,,---,0.00,VWS V12.07,2013-06-09 15:10:00,
2013-06-09 08:15:00,81.4,35.6,29.99,NE,55,0.0,32.1,19,0.00,,---,0.00,VWS V12.07,2013-06-09 15:15:00,
2013-06-09 08:20:00,82.1,35.4,29.99,NE,55,0.0,32.1,19,0.00,,---,0.00,VWS V12.07,2013-06-09 15:20:00,
2013-06-09 08:25:00,82.4,34.4,29.99,NE,55,0.0,32.1,18,0.00,,---,0.00,VWS V12.07,2013-06-09 15:25:00,
2013-06-09 08:30:00,82.6,33.7,29.99,NE,55,0.0,32.1,17,0.00,,---,0.00,VWS V12.07,2013-06-09 15:30:00,
2013-06-09 08:35:00,82.5,32.1,29.99,NE,55,0.0,32.1,16,0.00,,---,0.00,VWS V12.07,2013-06-09 15:35:00,
2013-06-09 08:40:00,83.0,32.8,30.00,NE,55,0.0,32.1,16,0.00,,---,0.00,VWS V12.07,2013-06-09 15:40:00,
2013-06-09 08:45:00,83.5,33.2,30.00,NE,55,0.0,32.1,16,0.00,,---,0.00,VWS V12.07,2013-06-09 15:45:00,
2013-06-09 08:50:00,84.9,32.8,30.00,NE,55,0.0,32.1,15,0.00,,---,0.00,VWS V12.07,2013-06-09 15:50:00,
2013-06-09 08:55:00,85.6,32.9,30.00,NE,55,0.0,32.1,15,0.00,,---,0.00,VWS V12.07,2013-06-09 15:55:00,
2013-06-09 09:00:00,86.0,33.8,29.99,NE,55,0.0,32.1,16,0.00,,---,0.00,VWS V12.07,2013-06-09 16:00:00,
2013-06-09 09:05:00,86.8,33.8,29.99,NE,45,0.0,32.1,15,0.00,,---,0.00,VWS V12.07,2013-06-09 16:05:00,
2013-06-09 09:10:00,87.1,33.2,29.99,NE,42,0.0,32.1,15,0.00,,---,0.00,VWS V12.07,2013-06-09 16:10:00,
2013-06-09 09:15:00,87.5,32.3,29.99,NE,42,0.0,32.1,14,0.00,,---,0.00,VWS V12.07,2013-06-09 16:15:00,
2013-06-09 09:20:00,87.7,31.6,29.99,NE,42,0.0,32.1,13,0.00,,---,0.00,VWS V12.07,2013-06-09 16:20:00,
2013-06-09 09:25:00,88.0,32.7,29.99,NE,42,0.0,32.1,14,0.00,,---,0.00,VWS V12.07,2013-06-09 16:25:00,
2013-06-09 09:30:00,88.7,32.7,29.99,NE,42,0.0,32.1,14,0.00,,---,0.00,VWS V12.07,2013-06-09 16:30:00,
2013-06-09 09:35:00,89.0,32.6,29.99,NE,42,0.0,32.1,13,0.00,,---,0.00,VWS V12.07,2013-06-09 16:35:00,
2013-06-09 09:40:00,89.2,32.4,29.99,NE,42,0.0,32.1,13,0.00,,---,0.00,VWS V12.07,2013-06-09 16:40:00,
2013-06-09 09:45:00,89.1,31.7,29.98,NE,42,0.0,32.1,13,0.00,,---,0.00,VWS V12.07,2013-06-09 16:45:00,
2013-06-09 09:50:00,89.5,32.4,29.98,NE,42,0.0,32.1,13,0.00,,---,0.00,VWS V12.07,2013-06-09 16:50:00,
2013-06-09 09:55:00,90.2,32.2,29.98,NE,42,0.0,32.1,13,0.00,,---,0.00,VWS V12.07,2013-06-09 16:55:00,
2013-06-09 10:00:00,90.2,32.0,29.98,NE,42,0.0,32.1,13,0.00,,---,0.00,VWS V12.07,2013-06-09 17:00:00,
2013-06-09 10:05:00,90.6,32.1,29.98,ENE,65,0.0,32.1,12,0.00,,---,0.00,VWS V12.07,2013-06-09 17:05:00,
2013-06-09 10:10:00,90.8,32.5,29.98,ENE,65,0.0,32.1,13,0.00,,---,0.00,VWS V12.07,2013-06-09 17:10:00,
2013-06-09 10:15:00,90.9,32.3,29.98,ENE,73,0.0,32.1,12,0.00,,---,0.00,VWS V12.07,2013-06-09 17:15:00,
2013-06-09 10:20:00,91.3,32.0,29.98,East,89,0.0,32.1,12,0.00,,---,0.00,VWS V12.07,2013-06-09 17:20:00,
2013-06-09 10:25:00,91.3,31.0,29.98,East,89,0.0,32.1,12,0.00,,---,0.00,VWS V12.07,2013-06-09 17:25:00,
2013-06-09 10:30:00,92.2,30.8,29.98,ENE,59,0.0,32.1,11,0.00,,---,0.00,VWS V12.07,2013-06-09 17:30:00,
2013-06-09 10:35:00,92.3,29.6,29.97,ENE,59,0.0,32.1,11,0.00,,---,0.00,VWS V12.07,2013-06-09 17:35:00,
2013-06-09 10:40:00,92.8,30.2,29.98,East,83,0.0,32.1,11,0.00,,---,0.00,VWS V12.07,2013-06-09 17:40:00,
2013-06-09 10:45:00,93.2,29.8,29.97,East,86,0.0,32.1,10,0.00,,---,0.00,VWS V12.07,2013-06-09 17:45:00,
2013-06-09 10:50:00,93.8,28.8,29.97,East,82,0.0,32.1,10,0.00,,---,0.00,VWS V12.07,2013-06-09 17:50:00,
2013-06-09 10:55:00,93.9,28.9,29.97,East,82,0.0,32.1,10,0.00,,---,0.00,VWS V12.07,2013-06-09 17:55:00,
2013-06-09 11:00:00,94.4,28.5,29.97,East,82,0.0,32.1,10,0.00,,---,0.00,VWS V12.07,2013-06-09 18:00:00,
2013-06-09 11:05:00,94.4,29.5,29.97,ENE,66,0.0,32.1,10,0.00,,---,0.00,VWS V12.07,2013-06-09 18:05:00,
2013-06-09 11:10:00,95.1,28.5,29.97,ENE,66,0.0,32.1,9,0.00,,---,0.00,VWS V12.07,2013-06-09 18:10:00,
2013-06-09 11:15:00,94.8,28.6,29.96,ESE,108,5.0,32.1,10,0.00,,---,0.00,VWS V12.07,2013-06-09 18:15:00,
2013-06-09 11:21:00,95.0,28.2,29.96,East,89,0.0,32.1,9,0.00,,---,0.00,VWS V12.07,2013-06-09 18:21:00,
2013-06-09 11:26:00,95.9,27.5,29.96,South,183,0.0,32.1,9,0.00,,---,0.00,VWS V12.07,2013-06-09 18:26:00,
2013-06-09 11:30:00,95.8,27.7,29.96,South,183,0.0,8.6,9,0.00,,---,0.00,VWS V12.07,2013-06-09 18:30:00,
2013-06-09 11:31:00,96.0,27.6,29.96,SW,219,3.0,32.1,9,0.00,,---,0.00,VWS V12.07,2013-06-09 18:31:00,
2013-06-09 11:36:00,96.5,27.1,29.95,East,89,4.6,32.1,8,0.00,,---,0.00,VWS V12.07,2013-06-09 18:36:00,
2013-06-09 11:41:00,96.5,26.8,29.95,SSW,193,5.8,32.1,8,0.00,,---,0.00,VWS V12.07,2013-06-09 18:41:00,
2013-06-09 11:46:00,96.9,27.1,29.95,South,176,0.0,32.1,8,0.00,,---,0.00,VWS V12.07,2013-06-09 18:46:00,
2013-06-09 11:51:00,97.5,25.8,29.95,South,179,0.0,32.1,8,0.00,,---,0.00,VWS V12.07,2013-06-09 18:51:00,
2013-06-09 11:56:00,98.0,25.5,29.95,ESE,120,0.0,32.1,8,0.00,,---,0.00,VWS V12.07,2013-06-09 18:56:00,
2013-06-09 12:00:00,98.0,25.9,29.94,ESE,120,0.0,9.5,8,0.00,,---,0.00,VWS V12.07,2013-06-09 19:00:00,
2013-06-09 12:01:00,98.0,26.2,29.94,ENE,62,0.0,32.1,8,0.00,,---,0.00,VWS V12.07,2013-06-09 19:01:00,
2013-06-09 12:06:00,99.0,25.3,29.94,SSE,159,3.2,32.1,7,0.00,,---,0.00,VWS V12.07,2013-06-09 19:06:00,
2013-06-09 12:11:00,98.9,24.5,29.94,East,83,0.0,32.1,7,0.00,,---,0.00,VWS V12.07,2013-06-09 19:11:00,
2013-06-09 12:16:00,98.5,24.9,29.94,SSE,148,0.0,32.1,7,0.00,,---,0.00,VWS V12.07,2013-06-09 19:16:00,
2013-06-09 12:21:00,98.8,24.8,29.94,ENE,73,0.0,32.1,7,0.00,,---,0.00,VWS V12.07,2013-06-09 19:21:00,
2013-06-09 12:26:00,99.1,24.0,29.94,SSW,197,0.0,32.1,7,0.00,,---,0.00,VWS V12.07,2013-06-09 19:26:00,
2013-06-09 12:30:00,99.4,24.2,29.94,SSW,197,0.0,14.2,7,0.00,,---,0.00,VWS V12.07,2013-06-09 19:30:00,
2013-06-09 12:31:00,99.9,24.6,29.94,SE,125,3.1,32.1,7,0.00,,---,0.00,VWS V12.07,2013-06-09 19:31:00,
2013-06-09 12:36:00,100.2,24.8,29.94,SSW,210,5.3,32.1,7,0.00,,---,0.00,VWS V12.07,2013-06-09 19:36:00,
2013-06-09 12:41:00,100.3,24.2,29.93,SSW,194,0.0,32.1,7,0.00,,---,0.00,VWS V12.07,2013-06-09 19:41:00,
2013-06-09 12:46:00,100.8,23.8,29.94,SE,134,1.9,32.1,6,0.00,,---,0.00,VWS V12.07,2013-06-09 19:46:00,
2013-06-09 12:51:00,101.1,24.0,29.93,South,177,0.0,32.1,6,0.00,,---,0.00,VWS V12.07,2013-06-09 19:51:00,
2013-06-09 12:56:00,101.3,24.2,29.93,SE,134,0.0,32.1,6,0.00,,---,0.00,VWS V12.07,2013-06-09 19:56:00,
2013-06-09 13:00:00,101.3,24.2,29.93,SE,134,0.0,10.3,6,0.00,,---,0.00,VWS V12.07,2013-06-09 20:00:00,
2013-06-09 13:01:00,101.2,24.1,29.93,SE,134,0.0,32.1,6,0.00,,---,0.00,VWS V12.07,2013-06-09 20:01:00,
2013-06-09 13:06:00,101.3,24.2,29.93,East,86,0.0,32.1,6,0.00,,---,0.00,VWS V12.07,2013-06-09 20:06:00,
2013-06-09 13:11:00,101.5,24.3,29.92,ENE,69,0.0,32.1,6,0.00,,---,0.00,VWS V12.07,2013-06-09 20:11:00,
2013-06-09 13:16:00,101.8,24.2,29.92,South,188,3.1,32.1,6,0.00,,---,0.00,VWS V12.07,2013-06-09 20:16:00,
2013-06-09 13:22:00,102.1,24.4,29.92,SE,127,4.5,32.1,6,0.00,,---,0.00,VWS V12.07,2013-06-09 20:22:00,
2013-06-09 13:27:00,101.8,24.2,29.91,ESE,115,2.9,32.1,6,0.00,,---,0.00,VWS V12.07,2013-06-09 20:27:00,
2013-06-09 13:30:00,101.6,24.0,29.91,SSE,160,4.2,9.9,6,0.00,,---,0.00,VWS V12.07,2013-06-09 20:30:00,
2013-06-09 13:32:00,102.4,24.2,29.91,SSW,202,0.0,32.1,6,0.00,,---,0.00,VWS V12.07,2013-06-09 20:32:00,
2013-06-09 13:37:00,103.5,25.0,29.91,SSW,197,4.6,32.1,6,0.00,,---,0.00,VWS V12.07,2013-06-09 20:37:00,
2013-06-09 13:42:00,103.7,24.8,29.90,South,190,0.0,32.1,6,0.00,,---,0.00,VWS V12.07,2013-06-09 20:42:00,
2013-06-09 13:47:00,103.9,24.5,29.90,South,174,4.8,32.1,6,0.00,,---,0.00,VWS V12.07,2013-06-09 20:47:00,
2013-06-09 13:52:00,103.3,24.5,29.90,South,170,7.1,32.1,6,0.00,,---,0.00,VWS V12.07,2013-06-09 20:52:00,
2013-06-09 13:57:00,103.7,24.8,29.90,South,180,5.2,32.1,6,0.00,,---,0.00,VWS V12.07,2013-06-09 20:57:00,
2013-06-09 14:00:00,103.6,24.7,29.90,SSW,195,0.0,13.4,6,0.00,,---,0.00,VWS V12.07,2013-06-09 21:00:00,
2013-06-09 14:02:00,103.7,24.8,29.90,SSW,204,4.5,32.1,6,0.00,,---,0.00,VWS V12.07,2013-06-09 21:02:00,
2013-06-09 14:07:00,103.4,24.5,29.89,WSW,252,6.4,32.1,6,0.00,,---,0.00,VWS V12.07,2013-06-09 21:07:00,
2013-06-09 14:12:00,103.7,24.8,29.90,SSW,197,6.3,32.1,6,0.00,,---,0.00,VWS V12.07,2013-06-09 21:12:00,
2013-06-09 14:17:00,103.5,24.6,29.90,SSE,166,10.9,32.1,6,0.00,,---,0.00,VWS V12.07,2013-06-09 21:17:00,
2013-06-09 14:22:00,103.5,24.6,29.89,SSW,208,1.7,32.1,6,0.00,,---,0.00,VWS V12.07,2013-06-09 21:22:00,
2013-06-09 14:27:00,103.7,24.8,29.89,SSW,197,5.3,32.1,6,0.00,,---,0.00,VWS V12.07,2013-06-09 21:27:00,
2013-06-09 14:30:00,103.7,24.8,29.89,South,184,9.6,17.9,6,0.00,,---,0.00,VWS V12.07,2013-06-09 21:30:00,
2013-06-09 14:32:00,103.9,24.9,29.89,South,173,4.2,32.1,6,0.00,,---,0.00,VWS V12.07,2013-06-09 21:32:00,
2013-06-09 14:37:00,104.2,24.7,29.89,SSW,210,5.2,32.1,6,0.00,,---,0.00,VWS V12.07,2013-06-09 21:37:00,
2013-06-09 14:42:00,104.3,24.8,29.89,WSW,249,8.2,32.1,6,0.00,,---,0.00,VWS V12.07,2013-06-09 21:42:00,
2013-06-09 14:47:00,104.1,24.6,29.89,SSW,200,4.8,32.1,6,0.00,,---,0.00,VWS V12.07,2013-06-09 21:47:00,
2013-06-09 14:52:00,103.4,24.5,29.89,SW,229,3.0,32.1,6,0.00,,---,0.00,VWS V12.07,2013-06-09 21:52:00,
2013-06-09 14:57:00,103.5,24.6,29.89,South,187,10.0,32.1,6,0.00,,---,0.00,VWS V12.07,2013-06-09 21:57:00,
2013-06-09 15:00:00,103.4,24.5,29.89,SSW,201,1.1,16.8,6,0.00,,---,0.00,VWS V12.07,2013-06-09 22:00:00,
2013-06-09 15:02:00,103.4,24.2,29.88,SSW,201,3.4,32.1,6,0.00,,---,0.00,VWS V12.07,2013-06-09 22:02:00,
2013-06-09 15:07:00,103.8,24.4,29.88,SSE,158,5.7,32.1,6,0.00,,---,0.00,VWS V12.07,2013-06-09 22:07:00,
2013-06-09 15:12:00,103.5,24.2,29.88,WSW,248,4.3,32.1,6,0.00,,---,0.00,VWS V12.07,2013-06-09 22:12:00,
2013-06-09 15:17:00,103.6,24.3,29.88,SW,225,6.1,32.1,6,0.00,,---,0.00,VWS V12.07,2013-06-09 22:17:00,
2013-06-09 15:22:00,103.4,23.8,29.88,SSW,194,5.4,32.1,6,0.00,,---,0.00,VWS V12.07,2013-06-09 22:22:00,
2013-06-09 15:27:00,103.2,23.6,29.88,South,169,6.0,32.1,6,0.00,,---,0.00,VWS V12.07,2013-06-09 22:27:00,
2013-06-09 15:30:00,103.2,23.6,29.88,SSE,156,6.4,18.6,6,0.00,,---,0.00,VWS V12.07,2013-06-09 22:30:00,
2013-06-09 15:32:00,103.3,23.7,29.88,South,170,13.9,32.1,6,0.00,,---,0.00,VWS V12.07,2013-06-09 22:32:00,
2013-06-09 15:37:00,102.9,23.4,29.88,South,174,5.2,32.1,6,0.00,,---,0.00,VWS V12.07,2013-06-09 22:37:00,
2013-06-09 15:43:00,102.5,23.1,29.88,South,169,3.4,32.1,6,0.00,,---,0.00,VWS V12.07,2013-06-09 22:43:00,
2013-06-09 15:47:00,102.9,23.0,29.87,SW,221,6.3,32.1,6,0.00,,---,0.00,VWS V12.07,2013-06-09 22:47:00,
2013-06-09 15:53:00,102.7,22.9,29.87,SSW,198,12.1,32.1,6,0.00,,---,0.00,VWS V12.07,2013-06-09 22:53:00,
2013-06-09 15:58:00,102.9,23.0,29.87,SSW,193,12.5,32.1,6,0.00,,---,0.00,VWS V12.07,2013-06-09 22:58:00,
2013-06-09 16:00:00,102.7,22.9,29.87,South,187,12.6,20.5,6,0.00,,---,0.00,VWS V12.07,2013-06-09 23:00:00,
2013-06-09 16:03:00,102.3,22.6,29.87,SW,217,5.5,32.1,6,0.00,,---,0.00,VWS V12.07,2013-06-09 23:03:00,
2013-06-09 16:08:00,102.4,22.2,29.87,SW,224,8.0,32.1,6,0.00,,---,0.00,VWS V12.07,2013-06-09 23:08:00,
2013-06-09 16:13:00,102.6,22.4,29.87,West,260,5.8,32.1,6,0.00,,---,0.00,VWS V12.07,2013-06-09 23:13:00,
2013-06-09 16:18:00,102.2,22.1,29.87,WSW,248,6.8,32.1,6,0.00,,---,0.00,VWS V12.07,2013-06-09 23:18:00,
2013-06-09 16:23:00,102.0,21.5,29.87,SSW,205,6.4,32.1,6,0.00,,---,0.00,VWS V12.07,2013-06-09 23:23:00,
2013-06-09 16:28:00,101.9,21.5,29.86,SW,218,11.2,32.1,6,0.00,,---,0.00,VWS V12.07,2013-06-09 23:28:00,
2013-06-09 16:30:00,101.7,21.3,29.86,South,187,13.0,21.4,6,0.00,,---,0.00,VWS V12.07,2013-06-09 23:30:00,
2013-06-09 16:33:00,102.1,21.6,29.86,SSW,194,6.8,32.1,6,0.00,,---,0.00,VWS V12.07,2013-06-09 23:33:00,
2013-06-09 16:38:00,102.2,21.3,29.86,SSW,207,4.6,32.1,6,0.00,,---,0.00,VWS V12.07,2013-06-09 23:38:00,
2013-06-09 16:43:00,101.4,20.7,29.86,WSW,242,7.8,32.1,6,0.00,,---,0.00,VWS V12.07,2013-06-09 23:43:00,
2013-06-09 16:48:00,101.5,20.8,29.86,SSW,210,11.7,32.1,6,0.00,,---,0.00,VWS V12.07,2013-06-09 23:48:00,
2013-06-09 16:53:00,101.6,20.9,29.86,South,179,7.8,32.1,6,0.00,,---,0.00,VWS V12.07,2013-06-09 23:53:00,
2013-06-09 16:58:00,101.2,20.6,29.86,SSW,195,7.8,32.1,6,0.00,,---,0.00,VWS V12.07,2013-06-09 23:58:00,
2013-06-09 17:00:00,101.3,20.6,29.86,South,186,14.4,16.3,6,0.00,,---,0.00,VWS V12.07,2013-06-10 00:00:00,
2013-06-09 17:03:00,101.3,21.1,29.86,South,180,4.3,32.1,6,0.00,,---,0.00,VWS V12.07,2013-06-10 00:03:00,
2013-06-09 17:08:00,101.2,21.0,29.85,WNW,283,12.6,32.1,6,0.00,,---,0.00,VWS V12.07,2013-06-10 00:08:00,
2013-06-09 17:13:00,101.0,20.4,29.85,SSW,207,6.6,32.1,6,0.00,,---,0.00,VWS V12.07,2013-06-10 00:13:00,
2013-06-09 17:18:00,100.9,20.4,29.85,South,180,7.5,32.1,6,0.00,,---,0.00,VWS V12.07,2013-06-10 00:18:00,
2013-06-09 17:23:00,100.4,20.4,29.85,SSW,211,8.7,32.1,6,0.00,,---,0.00,VWS V12.07,2013-06-10 00:23:00,
2013-06-09 17:28:00,100.3,20.4,29.85,SSE,153,9.1,32.1,6,0.00,,---,0.00,VWS V12.07,2013-06-10 00:28:00,
2013-06-09 17:30:00,100.8,20.7,29.85,SW,232,5.2,17.6,6,0.00,,---,0.00,VWS V12.07,2013-06-10 00:30:00,
2013-06-09 17:33:00,101.0,20.9,29.85,WSW,242,7.8,32.1,6,0.00,,---,0.00,VWS V12.07,2013-06-10 00:33:00,
2013-06-09 17:38:00,100.5,20.5,29.85,South,191,6.6,32.1,6,0.00,,---,0.00,VWS V12.07,2013-06-10 00:38:00,
2013-06-09 17:43:00,100.2,20.3,29.86,South,179,4.8,32.1,6,0.00,,---,0.00,VWS V12.07,2013-06-10 00:43:00,
2013-06-09 17:48:00,100.2,20.3,29.85,WSW,249,7.1,32.1,6,0.00,,---,0.00,VWS V12.07,2013-06-10 00:48:00,
2013-06-09 17:53:00,100.1,20.2,29.85,SW,224,11.1,32.1,6,0.00,,---,0.00,VWS V12.07,2013-06-10 00:53:00,
2013-06-09 17:58:00,100.1,20.6,29.86,SE,143,3.5,32.1,6,0.00,,---,0.00,VWS V12.07,2013-06-10 00:58:00,
2013-06-09 18:00:00,100.1,20.6,29.85,West,263,9.5,21.6,6,0.00,,---,0.00,VWS V12.07,2013-06-10 01:00:00,
2013-06-09 18:03:00,100.0,20.5,29.86,South,183,6.2,32.1,6,0.00,,---,0.00,VWS V12.07,2013-06-10 01:03:00,
2013-06-09 18:08:00,99.5,20.2,29.86,South,184,0.0,32.1,6,0.00,,---,0.00,VWS V12.07,2013-06-10 01:08:00,
2013-06-09 18:13:00,99.5,20.6,29.86,WSW,256,13.2,32.1,6,0.00,,---,0.00,VWS V12.07,2013-06-10 01:13:00,
2013-06-09 18:18:00,99.8,20.8,29.86,West,276,0.0,32.1,6,0.00,,---,0.00,VWS V12.07,2013-06-10 01:18:00,
2013-06-09 18:23:00,99.5,20.6,29.86,WSW,249,9.2,32.1,6,0.00,,---,0.00,VWS V12.07,2013-06-10 01:23:00,
2013-06-09 18:28:00,99.3,20.5,29.86,WSW,257,8.8,32.1,6,0.00,,---,0.00,VWS V12.07,2013-06-10 01:28:00,
2013-06-09 18:30:00,99.4,20.5,29.86,WSW,249,13.2,16.8,6,0.00,,---,0.00,VWS V12.07,2013-06-10 01:30:00,
2013-06-09 18:33:00,99.0,20.6,29.86,WSW,242,12.1,32.1,6,0.00,,---,0.00,VWS V12.07,2013-06-10 01:33:00,
2013-06-09 18:38:00,98.3,20.1,29.87,West,267,6.8,32.1,6,0.00,,---,0.00,VWS V12.07,2013-06-10 01:38:00,
2013-06-09 18:43:00,98.0,19.9,29.87,West,263,9.6,32.1,6,0.00,,---,0.00,VWS V12.07,2013-06-10 01:43:00,
2013-06-09 18:48:00,97.7,20.1,29.87,WSW,253,7.9,32.1,6,0.00,,---,0.00,VWS V12.07,2013-06-10 01:48:00,
2013-06-09 18:53:00,97.2,19.7,29.87,West,267,5.5,32.1,6,0.00,,---,0.00,VWS V12.07,2013-06-10 01:53:00,
2013-06-09 18:58:00,97.0,19.6,29.88,West,280,6.4,32.1,6,0.00,,---,0.00,VWS V12.07,2013-06-10 01:58:00,
2013-06-09 19:00:00,96.9,19.5,29.87,West,271,5.5,20.2,6,0.00,,---,0.00,VWS V12.07,2013-06-10 02:00:00,
2013-06-09 19:03:00,96.5,19.6,29.88,SW,218,0.0,32.1,6,0.00,,---,0.00,VWS V12.07,2013-06-10 02:03:00,
2013-06-09 19:08:00,96.3,19.5,29.88,SW,224,9.9,32.1,6,0.00,,---,0.00,VWS V12.07,2013-06-10 02:08:00,
2013-06-09 19:13:00,96.0,19.3,29.88,West,271,5.5,32.1,6,0.00,,---,0.00,VWS V12.07,2013-06-10 02:13:00,
2013-06-09 19:18:00,95.9,19.6,29.88,SW,231,0.0,32.1,6,0.00,,---,0.00,VWS V12.07,2013-06-10 02:18:00,
2013-06-09 19:23:00,95.3,19.1,29.88,WSW,238,4.9,32.1,6,0.00,,---,0.00,VWS V12.07,2013-06-10 02:23:00,
2013-06-09 19:28:00,94.9,19.2,29.88,SW,219,0.0,32.1,6,0.00,,---,0.00,VWS V12.07,2013-06-10 02:28:00,
2013-06-09 19:30:00,94.9,19.2,29.88,West,280,0.0,15.0,6,0.00,,---,0.00,VWS V12.07,2013-06-10 02:30:00,
2013-06-09 19:33:00,94.3,19.1,29.88,SW,221,5.4,32.1,6,0.00,,---,0.00,VWS V12.07,2013-06-10 02:33:00,
2013-06-09 19:38:00,94.0,18.9,29.89,WSW,238,5.7,32.1,6,0.00,,---,0.00,VWS V12.07,2013-06-10 02:38:00,
2013-06-09 19:43:00,93.8,19.1,29.89,SW,225,0.0,32.1,7,0.00,,---,0.00,VWS V12.07,2013-06-10 02:43:00,
2013-06-09 19:48:00,93.1,19.0,29.89,SW,225,0.0,32.1,7,0.00,,---,0.00,VWS V12.07,2013-06-10 02:48:00,
2013-06-09 19:53:00,92.9,19.2,29.89,SW,225,0.0,32.1,7,0.00,,---,0.00,VWS V12.07,2013-06-10 02:53:00,
2013-06-09 19:58:00,92.5,19.2,29.89,SW,225,0.0,32.1,7,0.00,,---,0.00,VWS V12.07,2013-06-10 02:58:00,
2013-06-09 20:00:00,92.8,19.1,29.89,SW,225,0.0,11.0,7,0.00,,---,0.00,VWS V12.07,2013-06-10 03:00:00,
2013-06-09 20:03:00,92.1,19.0,29.89,SW,225,0.0,32.1,7,0.00,,---,0.00,VWS V12.07,2013-06-10 03:03:00,
2013-06-09 20:08:00,91.9,18.8,29.89,SW,225,0.0,32.1,7,0.00,,---,0.00,VWS V12.07,2013-06-10 03:08:00,
2013-06-09 20:13:00,91.7,19.0,29.90,SW,225,0.0,32.1,7,0.00,,---,0.00,VWS V12.07,2013-06-10 03:13:00,
2013-06-09 20:18:00,91.5,18.5,29.90,WSW,240,0.0,32.1,7,0.00,,---,0.00,VWS V12.07,2013-06-10 03:18:00,
2013-06-09 20:23:00,91.7,18.7,29.90,SW,224,0.0,32.1,7,0.00,,---,0.00,VWS V12.07,2013-06-10 03:23:00,
2013-06-09 20:28:00,91.6,18.6,29.90,SSE,148,0.0,32.1,7,0.00,,---,0.00,VWS V12.07,2013-06-10 03:28:00,
2013-06-09 20:30:00,91.7,18.7,29.90,SSE,148,0.0,8.1,7,0.00,,---,0.00,VWS V12.07,2013-06-10 03:30:00,
2013-06-09 20:33:00,91.6,18.6,29.90,SW,219,0.0,32.1,7,0.00,,---,0.00,VWS V12.07,2013-06-10 03:33:00,
2013-06-09 20:38:00,91.3,18.4,29.90,WSW,243,0.0,32.1,7,0.00,,---,0.00,VWS V12.07,2013-06-10 03:38:00,
2013-06-09 20:43:00,90.8,19.6,29.90,WSW,243,0.0,32.1,7,0.00,,---,0.00,VWS V12.07,2013-06-10 03:43:00,
2013-06-09 20:48:00,90.0,20.9,29.90,WSW,243,0.0,32.1,8,0.00,,---,0.00,VWS V12.07,2013-06-10 03:48:00,
2013-06-09 20:53:00,88.8,23.5,29.90,WSW,243,0.0,32.1,9,0.00,,---,0.00,VWS V12.07,2013-06-10 03:53:00,
2013-06-09 20:58:00,87.6,24.6,29.91,WSW,243,0.0,32.1,10,0.00,,---,0.00,VWS V12.07,2013-06-10 03:58:00,
2013-06-09 21:00:00,87.9,24.4,29.91,WSW,243,0.0,8.4,10,0.00,,---,0.00,VWS V12.07,2013-06-10 04:00:00,
2013-06-09 21:01:00,87.0,24.9,29.91,WSW,243,0.0,32.1,10,0.00,,---,0.00,VWS V12.07,2013-06-10 04:01:00,
2013-06-09 21:06:00,86.0,24.5,29.91,WSW,243,0.0,32.1,11,0.00,,---,0.00,VWS V12.07,2013-06-10 04:06:00,
2013-06-09 21:12:00,85.1,25.0,29.91,WSW,243,0.0,32.1,11,0.00,,---,0.00,VWS V12.07,2013-06-10 04:12:00,
2013-06-09 21:17:00,84.4,25.5,29.91,WSW,243,0.0,32.1,12,0.00,,---,0.00,VWS V12.07,2013-06-10 04:17:00,
2013-06-09 21:22:00,83.5,25.6,29.92,WSW,243,0.0,32.1,12,0.00,,---,0.00,VWS V12.07,2013-06-10 04:22:00,
2013-06-09 21:27:00,83.0,26.6,29.92,WSW,243,0.0,32.1,13,0.00,,---,0.00,VWS V12.07,2013-06-10 04:27:00,
2013-06-09 21:30:00,82.9,26.3,29.92,WSW,243,0.0,0.0,13,0.00,,---,0.00,VWS V12.07,2013-06-10 04:30:00,
2013-06-09 21:32:00,82.7,26.0,29.92,West,281,0.0,32.1,12,0.00,,---,0.00,VWS V12.07,2013-06-10 04:32:00,
2013-06-09 21:37:00,82.6,25.5,29.92,West,281,0.0,32.1,12,0.00,,---,0.00,VWS V12.07,2013-06-10 04:37:00,
2013-06-09 21:42:00,82.6,25.7,29.93,West,281,0.0,32.1,12,0.00,,---,0.00,VWS V12.07,2013-06-10 04:42:00,
2013-06-09 21:47:00,82.8,25.5,29.93,West,281,0.0,32.1,12,0.00,,---,0.00,VWS V12.07,2013-06-10 04:47:00,
2013-06-09 21:52:00,82.6,25.1,29.93,NW,325,0.0,32.1,12,0.00,,---,0.00,VWS V12.07,2013-06-10 04:52:00,
2013-06-09 21:57:00,82.5,25.0,29.93,NW,325,0.0,32.1,12,0.00,,---,0.00,VWS V12.07,2013-06-10 04:57:00,
2013-06-09 22:00:00,82.6,25.1,29.93,NW,325,0.0,3.4,12,0.00,,---,0.00,VWS V12.07,2013-06-10 05:00:00,
2013-06-09 22:02:00,82.5,25.2,29.93,NW,325,0.0,32.1,12,0.00,,---,0.00,VWS V12.07,2013-06-10 05:02:00,
2013-06-09 22:07:00,82.1,25.1,29.93,NW,325,0.0,32.1,12,0.00,,---,0.00,VWS V12.07,2013-06-10 05:07:00,
2013-06-09 22:12:00,81.8,25.1,29.93,NW,325,0.0,32.1,12,0.00,,---,0.00,VWS V12.07,2013-06-10 05:12:00,
2013-06-09 22:17:00,81.5,24.8,29.93,NW,325,0.0,32.1,12,0.00,,---,0.00,VWS V12.07,2013-06-10 05:17:00,
2013-06-09 22:22:00,81.5,24.6,29.93,NW,325,0.0,32.1,12,0.00,,---,0.00,VWS V12.07,2013-06-10 05:22:00,
2013-06-09 22:27:00,81.5,24.4,29.93,NW,325,0.0,32.1,12,0.00,,---,0.00,VWS V12.07,2013-06-10 05:27:00,
2013-06-09 22:30:00,81.4,24.6,29.93,NW,325,0.0,0.0,12,0.00,,---,0.00,VWS V12.07,2013-06-10 05:30:00,
2013-06-09 22:32:00,81.4,24.8,29.93,NW,325,0.0,32.1,12,0.00,,---,0.00,VWS V12.07,2013-06-10 05:32:00,
2013-06-09 22:37:00,80.9,24.8,29.93,NW,325,0.0,32.1,13,0.00,,---,0.00,VWS V12.07,2013-06-10 05:37:00,
2013-06-09 22:42:00,80.6,24.7,29.93,NW,325,0.0,32.1,13,0.00,,---,0.00,VWS V12.07,2013-06-10 05:42:00,
2013-06-09 22:47:00,80.4,24.9,29.93,NW,325,0.0,32.1,13,0.00,,---,0.00,VWS V12.07,2013-06-10 05:47:00,
2013-06-09 22:52:00,80.3,24.6,29.93,NW,325,0.0,32.1,13,0.00,,---,0.00,VWS V12.07,2013-06-10 05:52:00,
2013-06-09 22:57:00,80.2,24.4,29.94,NW,325,0.0,32.1,13,0.00,,---,0.00,VWS V12.07,2013-06-10 05:57:00,
2013-06-09 23:00:00,80.2,24.4,29.94,NW,325,0.0,0.0,13,0.00,,---,0.00,VWS V12.07,2013-06-10 06:00:00,
2013-06-09 23:02:00,80.1,24.5,29.93,NW,325,0.0,32.1,13,0.00,,---,0.00,VWS V12.07,2013-06-10 06:02:00,
2013-06-09 23:07:00,80.0,24.6,29.94,NW,325,0.0,32.1,13,0.00,,---,0.00,VWS V12.07,2013-06-10 06:07:00,
2013-06-09 23:12:00,80.0,25.0,29.94,NW,325,0.0,32.1,13,0.00,,---,0.00,VWS V12.07,2013-06-10 06:12:00,
2013-06-09 23:17:00,79.7,24.9,29.94,NW,325,0.0,32.1,13,0.00,,---,0.00,VWS V12.07,2013-06-10 06:17:00,
2013-06-09 23:22:00,79.3,25.1,29.94,NW,325,0.0,32.1,14,0.00,,---,0.00,VWS V12.07,2013-06-10 06:22:00,
2013-06-09 23:27:00,79.2,25.2,29.94,NW,325,0.0,32.1,14,0.00,,---,0.00,VWS V12.07,2013-06-10 06:27:00,
2013-06-09 23:30:00,79.1,25.3,29.94,NW,325,0.0,0.0,14,0.00,,---,0.00,VWS V12.07,2013-06-10 06:30:00,
2013-06-09 23:32:00,79.0,25.1,29.94,NW,325,0.0,32.1,14,0.00,,---,0.00,VWS V12.07,2013-06-10 06:32:00,
2013-06-09 23:37:00,78.9,25.0,29.94,NW,325,0.0,32.1,14,0.00,,---,0.00,VWS V12.07,2013-06-10 06:37:00,
2013-06-09 23:42:00,79.0,24.9,29.94,NW,325,0.0,32.1,14,0.00,,---,0.00,VWS V12.07,2013-06-10 06:42:00,
2013-06-09 23:47:00,79.0,25.1,29.94,NW,325,0.0,32.1,14,0.00,,---,0.00,VWS V12.07,2013-06-10 06:47:00,
2013-06-09 23:52:00,78.9,25.2,29.93,NW,325,0.0,32.1,14,0.00,,---,0.00,VWS V12.07,2013-06-10 06:52:00,
2013-06-09 23:57:00,78.5,25.2,29.93,NW,325,0.0,32.1,14,0.00,,---,0.00,VWS V12.07,2013-06-10 06:57:00,